sat.trackr.live / text

‹ back to catalog

STARLINK-3089

NORAD 49166 · 2021-082AN

PAYLOAD ACTIVE UNKNOWN

§ Identity

Operator
Country
US
Launch date
2021-09-14
Launch site
AFWTR
Launch vehicle
Mass (kg)
RCS (m²)

Purposes: comms

External: N2YO · Heavens-Above · Gunter

§ Orbital elements

Epoch: 2026-09-20T02:04:08.519808Z

Period
96.16 min
Inclination
69.9996°
Eccentricity
0.0002778
Mean motion
14.97522234 rev/d
Perigee alt
572.6 km
Apogee alt
576.5 km
Semi-major
6,952.7 km
B*
3.2796e-5
RAAN
145.7196°
Arg perigee
270.0821°
Mean anomaly
90.0019°
Rev number
27,675

§ Raw data

STARLINK-30891 49166U 21082AN  26263.08620972  .00000291  00000+0  32796-4 0  99942 49166  69.9996 145.7196 0002778 270.0821  90.0019 14.97522234276758

JSON: /api/v1/satellites/49166 · /tle

For live sub-satellite position, see the globe view (requires WebGL).

§ Visibility from observer

Set your observer location to see the next 7 days of passes ≥ 10°. The values pass through the URL so the page stays shareable.

No JS? Fill the form by hand. The geolocation button needs JavaScript.